SWA2764 KLAS-KSEA

Flight info

Callsign SWA2764
Flight time N/A
Altitude 36000
Route JOHKR5 KENNO OAL LOMIA LKV HAWKZ8
Aircraft B38M/M-SDE1FGHILORVWXY/HB1

Departure

Time 2026-05-07 21:16
Airport Harry Reid International Airport (KLAS)

Arrival

Time N/A
Airport Seattle–Tacoma International Airport (KSEA)
Time Latitude Longitude Altitude Speed Heading
2026-05-07 20:56 36.08102 -115.14769 2100 ft 0 kts 56°
2026-05-07 21:02 36.08096 -115.14781 2127 ft 4 kts 56°
2026-05-07 21:02 36.08081 -115.14809 2100 ft 4 kts 56°
2026-05-07 21:02 36.08066 -115.14836 2100 ft 2 kts 56°
2026-05-07 21:03 36.08065 -115.14838 2100 ft 0 kts 56°
2026-05-07 21:06 36.08066 -115.14830 2100 ft 3 kts 85°
2026-05-07 21:06 36.08036 -115.14804 2100 ft 8 kts 166°
2026-05-07 21:06 36.07972 -115.14774 2100 ft 13 kts 154°
2026-05-07 21:07 36.07872 -115.14722 2099 ft 12 kts 172°
2026-05-07 21:07 36.07793 -115.14701 2100 ft 12 kts 139°
2026-05-07 21:07 36.07771 -115.14592 2099 ft 16 kts 92°
2026-05-07 21:07 36.07776 -115.14472 2099 ft 13 kts 53°
2026-05-07 21:08 36.07832 -115.14402 2098 ft 12 kts 82°
2026-05-07 21:08 36.07828 -115.14269 2098 ft 21 kts 90°
2026-05-07 21:08 36.07827 -115.14049 2096 ft 28 kts 90°
2026-05-07 21:08 36.07828 -115.13811 2095 ft 26 kts 90°
2026-05-07 21:09 36.07828 -115.13612 2094 ft 22 kts 90°
2026-05-07 21:09 36.07828 -115.13420 2092 ft 23 kts 90°
2026-05-07 21:09 36.07829 -115.13211 2088 ft 26 kts 90°
2026-05-07 21:09 36.07829 -115.12975 2079 ft 28 kts 90°
2026-05-07 21:10 36.07829 -115.12741 2069 ft 26 kts 90°
2026-05-07 21:10 36.07829 -115.12532 2062 ft 25 kts 90°
2026-05-07 21:10 36.07830 -115.12324 2057 ft 20 kts 90°
2026-05-07 21:10 36.07784 -115.12197 2053 ft 13 kts 129°
2026-05-07 21:11 36.07741 -115.12138 2051 ft 0 kts 142°
2026-05-07 21:14 36.07739 -115.12137 2051 ft 2 kts 142°
2026-05-07 21:14 36.07703 -115.12122 2052 ft 11 kts 176°
2026-05-07 21:15 36.07648 -115.12151 2051 ft 8 kts 252°
2026-05-07 21:15 36.07642 -115.12264 2053 ft 29 kts 270°
2026-05-07 21:15 36.07643 -115.12810 2073 ft 96 kts 269°
2026-05-07 21:15 36.07641 -115.13857 2095 ft 150 kts 270°
2026-05-07 21:16 36.07635 -115.15337 2269 ft 182 kts 270°
2026-05-07 21:16 36.07645 -115.16933 2868 ft 190 kts 270°
2026-05-07 21:16 36.07648 -115.18548 3639 ft 189 kts 270°
2026-05-07 21:16 36.07644 -115.20217 4158 ft 203 kts 267°
2026-05-07 21:17 36.07458 -115.22061 4503 ft 229 kts 261°
2026-05-07 21:17 36.07151 -115.24091 4946 ft 251 kts 251°
2026-05-07 21:17 36.06167 -115.25855 5748 ft 249 kts 218°
2026-05-07 21:17 36.04608 -115.26892 6418 ft 264 kts 201°
2026-05-07 21:18 36.02830 -115.27721 6915 ft 282 kts 202°
2026-05-07 21:18 36.00970 -115.28587 7595 ft 288 kts 202°
2026-05-07 21:18 35.99090 -115.29490 7958 ft 291 kts 207°
2026-05-07 21:18 35.97315 -115.30664 8847 ft 290 kts 211°
2026-05-07 21:19 35.95518 -115.31850 9634 ft 296 kts 211°
2026-05-07 21:19 35.93682 -115.33045 10396 ft 300 kts 210°
2026-05-07 21:19 35.91837 -115.34235 11291 ft 298 kts 208°
2026-05-07 21:19 35.90090 -115.35634 11979 ft 303 kts 226°
2026-05-07 21:20 35.88936 -115.37800 12631 ft 308 kts 251°
2026-05-07 21:20 35.88564 -115.40448 12990 ft 323 kts 272°
2026-05-07 21:20 35.88628 -115.43293 13293 ft 342 kts 272°
2026-05-07 21:20 35.88681 -115.46302 13603 ft 359 kts 272°
2026-05-07 21:21 35.88740 -115.49409 13915 ft 365 kts 273°
2026-05-07 21:21 35.88801 -115.52571 14433 ft 370 kts 273°
2026-05-07 21:21 35.88863 -115.55766 15048 ft 375 kts 273°
2026-05-07 21:21 35.88925 -115.58999 15664 ft 378 kts 273°
2026-05-07 21:22 35.88987 -115.62251 16321 ft 381 kts 273°
2026-05-07 21:22 35.89049 -115.65534 16922 ft 385 kts 273°
2026-05-07 21:22 35.89110 -115.68851 17511 ft 390 kts 273°
2026-05-07 21:22 35.89171 -115.72213 18109 ft 393 kts 273°
2026-05-07 21:23 35.89232 -115.75603 18646 ft 397 kts 274°
2026-05-07 21:23 35.89292 -115.79026 19168 ft 400 kts 274°
2026-05-07 21:23 35.89352 -115.82469 19717 ft 403 kts 274°
2026-05-07 21:23 35.89411 -115.85943 20245 ft 406 kts 274°
2026-05-07 21:24 35.89490 -115.89399 20739 ft 408 kts 277°
2026-05-07 21:24 35.90123 -115.92786 21239 ft 405 kts 295°
2026-05-07 21:24 35.91525 -115.95774 21688 ft 403 kts 311°
2026-05-07 21:24 35.93405 -115.98356 22137 ft 406 kts 315°
2026-05-07 21:25 35.95360 -116.00894 22617 ft 409 kts 316°
2026-05-07 21:25 35.97349 -116.03414 23107 ft 411 kts 316°
2026-05-07 21:25 35.99362 -116.05934 23584 ft 414 kts 317°
2026-05-07 21:25 36.01396 -116.08462 23984 ft 416 kts 317°
2026-05-07 21:26 36.03446 -116.11001 24427 ft 418 kts 317°
2026-05-07 21:26 36.04810 -116.12689 24674 ft 420 kts 317°
2026-05-07 21:26 36.06880 -116.15253 25041 ft 422 kts 317°
2026-05-07 21:26 36.08967 -116.17838 25410 ft 425 kts 317°
2026-05-07 21:27 36.11062 -116.20437 25772 ft 428 kts 317°
2026-05-07 21:27 36.13165 -116.23048 26145 ft 430 kts 317°
2026-05-07 21:27 36.15287 -116.25684 26508 ft 432 kts 317°
2026-05-07 21:27 36.17415 -116.28328 26810 ft 436 kts 317°
2026-05-07 21:28 36.19563 -116.30999 27183 ft 438 kts 317°
2026-05-07 21:28 36.21716 -116.33680 27524 ft 440 kts 317°
2026-05-07 21:28 36.23880 -116.36377 27866 ft 443 kts 317°
2026-05-07 21:28 36.26059 -116.39093 28204 ft 445 kts 317°
2026-05-07 21:29 36.28259 -116.41802 28548 ft 447 kts 319°
2026-05-07 21:29 36.30515 -116.44473 28858 ft 449 kts 318°
2026-05-07 21:29 36.32778 -116.47166 29201 ft 452 kts 318°
2026-05-07 21:29 36.35048 -116.49872 29513 ft 454 kts 318°
2026-05-07 21:30 36.37330 -116.52598 29829 ft 456 kts 318°
2026-05-07 21:30 36.39624 -116.55340 30126 ft 458 kts 318°
2026-05-07 21:30 36.41923 -116.58092 30387 ft 461 kts 318°
2026-05-07 21:30 36.44242 -116.60842 30721 ft 460 kts 319°
2026-05-07 21:31 36.46605 -116.63519 31097 ft 460 kts 320°
2026-05-07 21:31 36.48962 -116.66201 31508 ft 458 kts 319°
2026-05-07 21:31 36.51276 -116.68841 31896 ft 457 kts 319°
2026-05-07 21:31 36.53614 -116.71514 32295 ft 456 kts 319°
2026-05-07 21:32 36.55947 -116.74182 32687 ft 455 kts 319°
2026-05-07 21:32 36.58278 -116.76838 33093 ft 454 kts 319°
2026-05-07 21:32 36.60602 -116.79487 33484 ft 453 kts 319°
2026-05-07 21:32 36.62917 -116.82129 33878 ft 451 kts 320°
2026-05-07 21:33 36.65228 -116.84769 34182 ft 451 kts 319°
2026-05-07 21:33 36.67537 -116.87409 34430 ft 450 kts 319°
2026-05-07 21:33 36.69853 -116.90060 34674 ft 450 kts 319°
2026-05-07 21:33 36.72157 -116.92698 34929 ft 450 kts 319°
2026-05-07 21:34 36.74646 -116.95025 35199 ft 445 kts 334°
2026-05-07 21:34 36.77396 -116.96773 35466 ft 444 kts 333°
2026-05-07 21:34 36.80126 -116.98584 35683 ft 444 kts 333°
2026-05-07 21:34 36.82867 -117.00379 35892 ft 445 kts 333°
2026-05-07 21:35 36.88356 -117.03947 35914 ft 443 kts 334°
2026-05-07 21:35 36.93815 -117.07493 35943 ft 443 kts 334°
2026-05-07 21:36 36.99275 -117.11045 35949 ft 442 kts 334°
2026-05-07 21:36 37.04733 -117.14603 35955 ft 442 kts 333°
2026-05-07 21:37 37.10156 -117.18142 35944 ft 443 kts 333°
2026-05-07 21:37 37.15640 -117.21728 35966 ft 445 kts 333°
2026-05-07 21:38 37.21128 -117.25321 35975 ft 444 kts 333°
2026-05-07 21:38 37.26600 -117.28911 35981 ft 444 kts 333°
2026-05-07 21:39 37.32087 -117.32476 35972 ft 444 kts 333°
2026-05-07 21:39 37.37581 -117.36028 35977 ft 444 kts 333°
2026-05-07 21:40 37.43070 -117.39585 35975 ft 444 kts 333°
2026-05-07 21:40 37.48523 -117.43125 35975 ft 444 kts 333°
2026-05-07 21:41 37.54015 -117.46696 35979 ft 444 kts 333°
2026-05-07 21:41 37.59516 -117.50278 35983 ft 446 kts 333°
2026-05-07 21:42 37.65027 -117.53873 35974 ft 446 kts 333°
2026-05-07 21:42 37.70535 -117.57472 35975 ft 446 kts 333°
2026-05-07 21:43 37.76040 -117.61076 35972 ft 445 kts 333°
2026-05-07 21:43 37.81537 -117.64680 35968 ft 445 kts 333°
2026-05-07 21:44 37.87034 -117.68290 35973 ft 445 kts 333°
2026-05-07 21:44 37.92530 -117.71906 35974 ft 445 kts 333°
2026-05-07 21:45 37.98021 -117.75523 35969 ft 444 kts 333°
2026-05-07 21:45 38.00686 -117.77504 35945 ft 444 kts 322°
2026-05-07 21:45 38.03036 -117.80032 35988 ft 444 kts 321°
2026-05-07 21:46 38.07752 -117.85034 35980 ft 445 kts 320°
2026-05-07 21:46 38.12478 -117.90114 35983 ft 443 kts 320°
2026-05-07 21:47 38.17175 -117.95181 35983 ft 443 kts 320°
2026-05-07 21:47 38.21875 -118.00260 35991 ft 443 kts 320°
2026-05-07 21:48 38.26572 -118.05345 36003 ft 443 kts 320°
2026-05-07 21:48 38.31266 -118.10436 35993 ft 444 kts 320°
2026-05-07 21:49 38.35966 -118.15543 36004 ft 444 kts 320°
2026-05-07 21:49 38.40663 -118.20654 36002 ft 444 kts 320°
2026-05-07 21:50 38.45356 -118.25771 36035 ft 443 kts 320°
2026-05-07 21:50 38.50040 -118.30888 36046 ft 443 kts 320°
2026-05-07 21:51 38.54721 -118.36009 36057 ft 443 kts 320°
2026-05-07 21:51 38.59413 -118.41153 36082 ft 444 kts 320°
2026-05-07 21:52 38.64070 -118.46265 36075 ft 444 kts 319°
2026-05-07 21:52 38.68753 -118.51417 36008 ft 444 kts 319°
2026-05-07 21:53 38.73434 -118.56576 36006 ft 444 kts 319°
2026-05-07 21:53 38.78106 -118.61734 36005 ft 443 kts 319°
2026-05-07 21:54 38.82767 -118.66889 36002 ft 443 kts 319°
2026-05-07 21:54 38.87444 -118.72071 36006 ft 445 kts 319°
2026-05-07 21:55 38.92121 -118.77263 36003 ft 443 kts 319°
2026-05-07 21:55 38.96780 -118.82443 35999 ft 443 kts 319°
2026-05-07 21:56 39.01436 -118.87630 35997 ft 443 kts 319°
2026-05-07 21:56 39.06093 -118.92827 35999 ft 443 kts 319°
2026-05-07 21:57 39.10747 -118.98030 35991 ft 442 kts 319°
2026-05-07 21:57 39.15365 -119.03200 36012 ft 442 kts 319°
2026-05-07 21:58 39.20004 -119.08396 36012 ft 441 kts 320°
2026-05-07 21:58 39.22597 -119.10563 35959 ft 438 kts 336°
2026-05-07 21:58 39.25426 -119.11853 36030 ft 438 kts 340°
2026-05-07 21:59 39.31238 -119.14365 36018 ft 440 kts 341°
2026-05-07 21:59 39.37087 -119.16787 35989 ft 442 kts 341°
2026-05-07 22:00 39.42959 -119.19190 35985 ft 443 kts 341°
2026-05-07 22:00 39.48829 -119.21593 35976 ft 442 kts 341°
2026-05-07 22:01 39.54690 -119.23997 35972 ft 442 kts 341°
2026-05-07 22:01 39.60541 -119.26401 35970 ft 439 kts 341°
2026-05-07 22:02 39.66368 -119.28799 35969 ft 440 kts 341°
2026-05-07 22:02 39.72196 -119.31202 35967 ft 440 kts 341°
2026-05-07 22:03 39.78030 -119.33612 35970 ft 438 kts 341°
2026-05-07 22:03 39.83815 -119.36007 35962 ft 439 kts 341°
2026-05-07 22:04 39.89641 -119.38421 35972 ft 439 kts 341°
2026-05-07 22:04 39.95461 -119.40840 35977 ft 440 kts 341°
2026-05-07 22:05 40.01308 -119.43272 35974 ft 441 kts 341°
2026-05-07 22:05 40.07168 -119.45715 35975 ft 441 kts 341°
2026-05-07 22:06 40.13010 -119.48154 35976 ft 439 kts 341°
2026-05-07 22:06 40.18786 -119.50569 35976 ft 439 kts 341°
2026-05-07 22:07 40.24611 -119.53011 35977 ft 438 kts 341°
2026-05-07 22:07 40.30422 -119.55449 35976 ft 438 kts 341°
2026-05-07 22:08 40.36229 -119.57892 35972 ft 437 kts 341°
2026-05-07 22:08 40.42028 -119.60336 35984 ft 437 kts 341°